Location: Newark
(49.7697°N, 2.7094°E)
Time: 18:26:38
(UTC+00:00)

QB50P2 - Visible Passes

Search period start: 10 April 2020 00:00
Search period end: 20 April 2020 00:00
Orbit: 593 x 611 km, 97.9° (Epoch: 09 April)

Date Brightness Start Highest point End Pass type
(mag) Time Alt. Az. Time Alt. Az. Time Alt. Az.
10 Apr ? 00:46:14 10° NNE 00:48:32 32° N 00:48:32 32° N visible
10 Apr ? 02:24:12 10° NW 02:25:20 11° NW 02:25:20 11° NW visible
10 Apr ? 23:23:24 10° NE 23:23:43 11° NE 23:23:43 11° NE visible
11 Apr ? 00:58:02 10° N 01:00:31 33° N 01:00:31 33° N visible
11 Apr ? 23:34:44 10° NE 23:35:42 14° NE 23:35:42 14° NE visible
12 Apr ? 01:09:53 10° N 01:12:30 33° NNW 01:12:30 33° NNW visible
12 Apr ? 23:46:12 10° NE 23:47:42 18° NE 23:47:42 18° NE visible
13 Apr ? 01:21:46 10° N 01:24:29 30° NW 01:24:29 30° NW visible
13 Apr ? 23:57:46 10° NNE 23:59:41 22° NE 23:59:41 22° NE visible
14 Apr ? 01:33:41 10° N 01:36:28 26° NW 01:36:28 26° NW visible
15 Apr ? 00:09:24 10° NNE 00:11:39 28° NE 00:11:39 28° NE visible
15 Apr ? 01:45:40 10° NNW 01:48:27 22° NW 01:48:27 22° NW visible
16 Apr ? 00:21:03 10° NNE 00:23:38 34° NE 00:23:38 34° NE visible
16 Apr ? 01:57:43 10° NNW 02:00:26 18° WNW 02:00:26 18° WNW visible
17 Apr ? 00:32:47 10° NNE 00:35:37 41° NNE 00:35:37 41° NNE visible
17 Apr ? 02:09:54 10° NNW 02:12:12 15° WNW 02:12:25 15° WNW visible
18 Apr ? 00:44:32 10° NNE 00:47:36 47° N 00:47:36 47° N visible
18 Apr ? 02:22:20 10° NW 02:23:48 12° NW 02:24:24 11° WNW visible
18 Apr ? 23:21:48 10° NE 23:22:47 13° ENE 23:22:47 13° ENE visible
19 Apr ? 00:56:20 10° N 00:59:34 48° NNW 00:59:34 48° NNW visible
19 Apr ? 23:33:06 10° NE 23:34:45 17° ENE 23:34:45 17° ENE visible
